Date String (YYYY-MM-DD hh:mm:ss) UTC,Instrument flags,Ambient pressure (hPa),Sample flow (lpm),Bypass flow (lpm),Sample temperature (°C),Ambient temperature (°C),ASC tube jacket temperature (°C),LED temperature (°C),Box temperature (°C),Sample RH (%),Span deviation,Mass concentration (μg/m³),Mass concentration (μg/m³),Mass concentration (μg/m³)
DateTimeUTC,F1_M11,P_M11,Q1_M11,Q2_M11,T1_M11,T2_M11,T3_M11,T4_M11,T5_M11,U1_M11,ZSPAN_M11,X2_M11,X0_M11,X1_M11
2022-03-13 21:00:00,,0816.4,4.99,0.00,27.7,27.1,00.0,36.6,29.5,07.5,0000.0,0001.76,0002.74,0001.40
2022-03-13 21:01:00,,0816.3,4.99,0.00,27.7,27.1,00.0,36.6,29.5,07.4,0000.0,0001.75,0002.81,0001.38
2022-03-13 21:02:00,,0816.2,5.00,0.00,27.8,27.1,00.0,36.6,29.6,07.4,0000.0,0001.77,0002.89,0001.37
2022-03-13 21:03:00,,0816.1,5.00,0.00,27.8,27.1,00.0,36.6,29.6,07.3,0000.0,0001.74,0003.55,0001.34
2022-03-13 21:04:00,,0816.1,5.00,0.00,27.8,27.1,00.0,36.6,29.6,07.5,0000.0,0001.73,0003.49,0001.33
2022-03-13 21:05:00,,0816.1,5.01,0.00,27.8,27.2,00.0,36.7,29.6,07.4,0000.0,0001.72,0003.47,0001.32
2022-03-13 21:06:00,,0816.2,5.01,0.00,27.8,27.2,00.0,36.7,29.6,07.7,0000.0,0001.68,0004.36,0001.32
2022-03-13 21:07:00,,0816.1,4.99,0.00,27.8,27.2,00.0,36.7,29.6,07.6,0000.0,0001.68,0004.70,0001.33
2022-03-13 21:08:00,,0816.1,4.99,0.00,27.8,27.2,00.0,36.7,29.6,07.5,0000.0,0001.71,0004.87,0001.33
2022-03-13 21:09:00,,0816.1,5.01,0.00,27.8,27.2,00.0,36.7,29.6,07.6,0000.0,0001.73,0004.93,0001.34
2022-03-13 21:10:00,,0816.1,5.01,0.00,27.8,27.2,00.0,36.7,29.6,07.6,0000.0,0001.70,0004.82,0001.34
2022-03-13 21:11:00,,0816.2,5.00,0.00,27.8,27.2,00.0,36.7,29.6,07.3,0000.0,0001.70,0004.76,0001.35
2022-03-13 21:12:00,,0816.1,5.00,0.00,27.8,27.2,00.0,36.7,29.6,07.4,0000.0,0001.72,0004.71,0001.36
2022-03-13 21:13:00,,0816.2,4.99,0.00,27.9,27.2,00.0,36.7,29.7,07.4,0000.0,0001.71,0004.67,0001.36
2022-03-13 21:14:00,,0816.2,5.02,0.00,27.9,27.2,00.0,36.7,29.7,07.4,0000.0,0001.71,0003.95,0001.37
2022-03-13 21:15:00,,0816.2,4.99,0.00,27.9,27.3,00.0,36.7,29.7,07.4,0000.0,0001.69,0004.49,0001.37
2022-03-13 21:16:00,,0816.1,5.00,0.00,27.9,27.3,00.0,36.8,29.7,07.5,0000.0,0001.69,0005.09,0001.37
2022-03-13 21:17:00,,0816.2,5.00,0.00,27.9,27.3,00.0,36.8,29.7,07.4,0000.0,0001.72,0004.23,0001.38
2022-03-13 21:18:00,,0816.2,5.00,0.00,27.9,27.3,00.0,36.8,29.8,07.4,0000.0,0001.75,0004.08,0001.39
2022-03-13 21:19:00,,0816.2,5.01,0.00,28.0,27.3,00.0,36.8,29.8,07.5,0000.0,0001.78,0004.06,0001.39
2022-03-13 21:20:00,,0816.1,5.00,0.00,28.0,27.3,00.0,36.8,29.8,07.5,0000.0,0001.78,0004.05,0001.39
2022-03-13 21:21:00,,0816.1,4.99,0.00,28.0,27.4,00.0,36.8,29.8,07.6,0000.0,0001.81,0004.64,0001.39
2022-03-13 21:22:00,,0816.1,4.99,0.00,28.0,27.4,00.0,36.8,29.8,07.3,0000.0,0001.82,0004.89,0001.39
2022-03-13 21:23:00,,0816.1,5.00,0.00,28.0,27.4,00.0,36.8,29.9,07.3,0000.0,0001.78,0004.79,0001.38
2022-03-13 21:24:00,,0816.2,5.00,0.00,28.0,27.4,00.0,36.9,29.8,07.2,0000.0,0001.73,0004.77,0001.35
2022-03-13 21:25:00,,0816.2,4.99,0.00,28.0,27.4,00.0,36.9,29.8,06.7,0000.0,0001.68,0004.72,0001.32
2022-03-13 21:26:00,,0816.2,4.99,0.00,28.1,27.4,00.0,36.9,29.9,06.6,0000.0,0001.68,0004.32,0001.29
2022-03-13 21:27:00,,0816.1,5.02,0.00,28.1,27.4,00.0,36.9,29.9,06.8,0000.0,0001.64,0003.47,0001.27
2022-03-13 21:28:00,,0816.2,4.99,0.00,28.1,27.4,00.0,36.9,29.9,07.1,0000.0,0001.58,0003.29,0001.25
2022-03-13 21:29:00,,0816.1,5.00,0.00,28.1,27.4,00.0,36.9,29.9,07.5,0000.0,0001.55,0003.16,0001.24
2022-03-13 21:30:00,,0816.1,5.00,0.00,28.1,27.5,00.0,36.9,29.9,07.7,0000.0,0001.54,0003.18,0001.24
2022-03-13 21:31:00,,0816.0,4.99,0.00,28.1,27.5,00.0,36.9,29.9,07.3,0000.0,0001.55,0003.18,0001.25
2022-03-13 21:32:00,,0816.0,5.02,0.00,28.1,27.5,00.0,36.9,30.0,07.4,0000.0,0001.52,0002.58,0001.25
2022-03-13 21:33:00,,0816.1,4.99,0.00,28.1,27.5,00.0,36.9,30.0,07.3,0000.0,0001.51,0002.32,0001.25
2022-03-13 21:34:00,,0816.1,4.99,0.00,28.1,27.5,00.0,37.0,29.9,07.3,0000.0,0001.52,0002.33,0001.27
2022-03-13 21:35:00,,0816.1,5.01,0.00,28.1,27.5,00.0,37.0,30.0,07.4,0000.0,0001.52,0002.23,0001.29
2022-03-13 21:36:00,,0816.1,5.00,0.00,28.2,27.5,00.0,37.0,30.0,07.3,0000.0,0001.57,0002.26,0001.32
2022-03-13 21:37:00,,0816.2,4.99,0.00,28.2,27.5,00.0,37.0,30.0,07.6,0000.0,0001.59,0002.24,0001.35
2022-03-13 21:38:00,,0816.2,5.01,0.00,28.2,27.5,00.0,37.0,30.0,07.4,0000.0,0001.64,0002.35,0001.37
2022-03-13 21:39:00,,0816.2,4.99,0.00,28.2,27.5,00.0,37.0,30.0,07.4,0000.0,0001.70,0002.51,0001.38
2022-03-13 21:40:00,,0816.5,4.99,0.00,28.2,27.5,00.0,37.0,30.0,07.2,0000.0,0001.73,0002.64,0001.39
2022-03-13 21:41:00,,0816.4,5.01,0.00,28.2,27.5,00.0,37.0,30.0,07.4,0000.0,0001.77,0002.61,0001.40
2022-03-13 21:42:00,,0816.4,5.00,0.00,28.2,27.5,00.0,37.0,30.0,07.3,0000.0,0001.78,0002.60,0001.39
2022-03-13 21:43:00,,0816.3,4.99,0.00,28.2,27.5,00.0,37.0,30.0,07.5,0000.0,0001.80,0002.65,0001.39
2022-03-13 21:44:00,,0816.1,5.01,0.00,28.2,27.5,00.0,37.0,30.0,07.4,0000.0,0001.79,0002.64,0001.39
2022-03-13 21:45:00,,0816.0,5.00,0.00,28.2,27.5,00.0,37.1,30.0,07.2,0000.0,0001.79,0002.74,0001.37
2022-03-13 21:46:00,,0816.1,4.99,0.00,28.2,27.5,00.0,37.1,30.0,07.3,0000.0,0001.78,0002.74,0001.36
2022-03-13 21:47:00,,0816.0,4.99,0.00,28.2,27.5,00.0,37.1,30.0,07.6,0000.0,0001.78,0002.73,0001.35
2022-03-13 21:48:00,,0816.0,5.01,0.00,28.2,27.5,00.0,37.1,29.9,07.5,0000.0,0001.77,0002.70,0001.35
2022-03-13 21:49:00,,0816.0,5.01,0.00,28.2,27.5,00.0,37.1,29.9,07.4,0000.0,0001.78,0002.76,0001.36
2022-03-13 21:50:00,,0816.1,4.99,0.00,28.2,27.5,00.0,37.1,29.9,07.7,0000.0,0001.82,0002.85,0001.38
2022-03-13 21:51:00,,0816.2,4.98,0.00,28.2,27.5,00.0,37.1,29.9,07.6,0000.0,0001.81,0002.77,0001.37
2022-03-13 21:52:00,,0816.3,5.00,0.00,28.2,27.5,00.0,37.1,29.9,07.2,0000.0,0001.76,0002.72,0001.35
2022-03-13 21:53:00,,0816.5,5.01,0.00,28.2,27.5,00.0,37.1,29.9,06.9,0000.0,0001.76,0002.84,0001.34
2022-03-13 21:54:00,,0816.3,4.99,0.00,28.2,27.5,00.0,37.1,29.9,07.1,0000.0,0001.72,0003.36,0001.31
2022-03-13 21:55:00,,0816.3,4.99,0.00,28.2,27.5,00.0,37.1,29.9,07.0,0000.0,0001.74,0004.19,0001.29
2022-03-13 21:56:00,,0816.3,5.01,0.00,28.2,27.5,00.0,37.1,29.9,07.4,0000.0,0001.73,0004.15,0001.28
2022-03-13 21:57:00,,0816.2,5.00,0.00,28.2,27.5,00.0,37.1,29.9,07.2,0000.0,0001.72,0004.21,0001.28
2022-03-13 21:58:00,,0816.1,4.99,0.00,28.2,27.5,00.0,37.1,30.0,06.8,0000.0,0001.69,0004.19,0001.25
2022-03-13 21:59:00,,0816.0,5.00,0.00,28.2,27.5,00.0,37.1,30.0,06.1,0000.0,0001.64,0004.25,0001.18
